Terminal Aerodrome Forecast
Issued by NWS

Home | Current Version | Previous Version | Text Only | Print | Product List | Glossary On
Versions: 1 2 3 4 5 6 7 8 9 10 11 12 13 14 15 16 17 18 19 20 21 22
000
FTPA31 PHFO 280500
TAFOGG
TAF
PHOG 280520Z 2806/2906 03010KT P6SM FEW050
     FM281900 05015G22KT P6SM FEW030 SCT050
     FM290400 03011KT P6SM FEW050
      AMD LTD TO WX VIS AND WIND 2809/2816=

USA.gov is the U.S. government's official web portal to all federal, state and local government web resources and services.